Simultaneous Nadir Overpasses (SNOs) Predictions

Prediction of SNOs between GOES-17 and METOP-B Satellite Orbit:

Table of predicted SNOs for the next 14.0 days since TLE Epoch: 2/14/2025
Index Date Time (GOES-17) GOES-17 Lat,Lon METOP-B Lat,Lon Distance(km) Time Diff (sec)
1 02/15/2025 16:22:02 -0.01,-104.34 0.72,-107.64 375.72 80
2 02/16/2025 16:04:05 -0.01,-104.24 -0.34,-102.66 178.94 80
3 02/18/2025 04:20:30 0.01,-104.07 -0.71,-107.29 367.69 80
4 02/19/2025 04:02:34 0.01,-103.96 0.36,-102.32 186.77 80
5 02/20/2025 16:18:51 -0.01,-103.79 0.67,-106.92 355.95 80
6 02/21/2025 16:00:55 -0.01,-103.68 -0.41,-101.94 198.48 80
7 02/23/2025 04:17:19 0.01,-103.51 -0.69,-106.56 348.32 80
8 02/24/2025 03:59:23 0.01,-103.39 0.39,-101.58 205.86 80
9 02/25/2025 16:15:40 -0.01,-103.22 0.62,-106.19 337.33 80
10 02/26/2025 15:57:42 -0.01,-103.11 -0.41,-101.20 217.10 80
11 02/28/2025 04:16:48 0.01,-102.94 -0.61,-105.84 329.19 80
